Location: Melizzano
(41.1500°N, 14.5000°E)
Time: 07:53:31
(UTC+00:00)

Spot 4 - Pass Details

Date: 11 May 2021
Orbit: 703 x 724 km, 98.3° (Epoch: 15 June)

Event Time Altitude Azimuth Distance (km) Brightness Sun altitude
Exits shadow 21:55:19 54° 26° (NNE) 881 4.4 -29.0°
Drops below altitude 10° 21:59:17 10° 353° (N) 2,220 7.3 -29.2°
Sets 22:01:35 0° 351° (N) 3,144 8.4 -29.3°
